Location: Brad
(46.1333°N, 22.7833°E)
Time: 21:22:18
(UTC+00:00)

CSL-04 Rocket - Pass Details

Date: 03 February 2023
Orbit: 806 x 859 km, 98.8° (Epoch: 23 March)

Event Time Altitude Azimuth Distance (km) Brightness Sun altitude
Exits shadow 18:47:15 48° 290° (WNW) 1,071 4.5 -33.2°
Drops below altitude 10° 18:51:42 10° 337° (NNW) 2,443 6.4 -34.0°
Sets 18:54:09 0° 342° (NNW) 3,389 7.2 -34.4°
